Tracking 35334 objects as of 13-Sep-2026
HD Live streaming from Space Station
objects crossing your sky now

STARLINK-3886


STARLINK-3886 is no longer on orbit
STARLINK-3886 is classified as:


NORAD ID: 52582
Int'l Code: 2022-051AY
Launch date: May 13, 2022
Source: United States (US)
Launch site: AIR FORCE WESTERN TEST RANGE (AFWTR)
Decay date: 2025-01-07
Your satellite tracking list
Your tracking list is empty




NASA's NSSDC Master Catalog

Two Line Element Set (TLE):
1 52582U 22051AY  25007.94638281  .63605744  12882-4  19798-3 0  9994
2 52582  53.1943 201.9219 0002292 279.5829 246.8267 16.58849514147772
Source of the keplerian elements: AFSPC